EHI
0 0 0 0 0 0 0 0 0 0 0 0 0 0 0 1 1 2 4 5 3 1 4 9 9 10 11 12 15 19 22 23 20 14 9 8 6 5 4 5 6 6 7 8
0 0 0 0 0 0 0 0 0 0 0 0 0 0 1 2 2 2 3 3 2 2 6 11 13 14 15 16 18 21 25 27 25 19 13 10 8 6 5 5 6 6 6 6
0 0 0 0 0 0 0 0 0 0 0 0 0 0 1 2 2 3 2 1 1 3 8 14 18 21 21 21 22 24 28 32 31 25 19 16 13 9 6 5 6 6 6 5
0 0 0 0 0 0 0 0 0 0 0 0 0 0 0 1 2 3 3 2 1 2 7 15 21 25 25 23 23 27 34 39 38 32 28 26 21 12 7 6 5 5 6 6
0 0 0 0 0 0 0 0 0 0 0 0 0 0 0 1 3 3 4 3 2 2 5 11 18 23 23 18 20 29 41 47 47 42 37 33 25 15 9 8 7 7 8 9
0 0 0 0 0 0 0 0 0 0 0 0 0 0 0 2 4 4 3 3 2 3 6 10 15 19 18 15 18 30 45 54 55 50 43 37 30 22 16 12 11 11 12 13
0 0 0 0 0 0 0 0 0 0 0 0 0 0 2 5 7 6 3 2 3 5 8 12 15 18 18 16 18 31 47 57 59 56 47 40 34 28 23 18 15 16 16 15
0 0 0 0 0 0 0 0 0 0 0 0 0 1 3 6 9 8 5 4 5 8 9 12 15 18 19 19 21 32 47 56 59 57 52 45 40 34 29 24 20 20 18 16
0 0 0 0 0 0 0 0 0 0 0 0 0 1 3 7 11 12 8 6 8 9 10 10 13 15 18 21 24 33 43 51 55 55 53 49 46 41 36 31 27 23 20 18
0 0 0 0 0 0 0 0 0 0 0 0 0 0 3 8 12 13 11 10 12 13 12 13 14 16 18 22 26 32 38 44 49 52 50 48 48 47 44 39 33 28 24 22
0 0 0 0 0 0 0 0 0 0 0 0 0 0 3 8 12 14 14 16 19 20 19 19 20 21 22 25 29 32 35 40 46 49 48 46 46 46 44 42 38 33 29 27
0 0 0 0 0 0 0 0 0 0 0 0 0 1 4 9 14 15 16 20 24 25 26 26 27 28 31 33 36 37 37 40 45 49 49 48 46 43 42 42 41 37 33 30
0 0 0 0 0 0 0 0 0 0 0 0 0 1 5 11 14 14 14 18 23 26 29 31 32 35 39 42 43 43 41 42 46 49 49 49 46 43 42 43 43 41 37 34
0 0 0 0 0 0 0 0 0 0 0 0 0 1 6 11 14 13 12 16 22 27 31 35 36 40 45 48 49 47 43 41 45 49 50 47 44 42 43 44 45 44 40 36
0 0 0 0 0 0 0 0 0 0 0 0 1 3 7 13 16 15 14 17 24 29 32 36 40 44 49 50 49 48 46 43 46 50 50 46 43 43 44 44 43 42 39 35
0 0 0 0 0 0 0 0 0 0 0 1 2 5 10 15 18 17 16 18 24 29 33 36 40 44 46 46 45 45 46 46 47 49 47 43 42 44 44 42 41 39 36 34
0 0 0 0 0 0 0 0 0 1 1 2 4 8 13 17 20 19 17 20 24 28 31 34 36 39 39 38 39 39 40 43 45 46 43 39 39 41 40 39 38 37 36 35
0 0 0 0 0 0 0 0 1 3 4 4 7 11 15 18 21 21 20 22 25 30 32 33 33 34 33 33 34 35 36 38 41 42 40 38 36 35 34 34 35 36 36 35
0 0 0 0 0 0 0 0 1 3 3 4 8 13 15 17 20 21 23 26 30 35 35 33 31 29 28 31 34 35 35 37 37 37 36 35 31 27 28 31 33 34 33 32
0 0 0 0 0 1 1 0 0 1 2 3 9 14 15 15 18 23 26 29 34 36 35 32 30 28 27 30 33 32 32 34 34 33 32 30 28 26 28 31 31 30 30 27
0 0 0 0 0 1 1 0 0 2 3 6 11 16 17 19 24 30 31 31 34 36 34 31 31 31 30 29 29 29 30 32 33 31 30 30 30 30 32 33 30 27 26 24
0 0 0 0 1 2 2 3 4 6 9 10 14 18 21 27 32 35 34 32 33 34 33 32 34 35 32 28 26 28 30 31 31 31 31 33 33 30 28 28 27 25 23 22
0 0 0 0 1 2 4 7 9 11 13 13 16 20 24 28 32 34 33 32 32 32 32 33 34 34 31 27 26 27 28 29 28 28 30 30 27 23 20 20 21 21 20 19
2 2 2 1 2 2 5 9 11 13 14 14 17 21 24 26 27 29 29 29 28 28 29 30 31 30 26 23 23 24 23 23 22 21 21 19 17 15 14 13 14 13 12 13
3 4 4 4 3 3 7 11 12 13 15 16 18 20 23 25 24 24 24 23 22 22 23 26 27 25 20 18 18 18 17 16 15 14 11 9 8 9 8 7 6 5 5 5
2 4 6 6 4 5 9 14 14 14 16 18 18 19 22 23 22 22 22 19 18 18 20 23 24 22 18 14 14 14 12 12 11 10 8 6 5 6 4 2 1 1 1 1
Wind_Speed
7 10 12 11 10 6 7 9 8 6 6 7 7 5 7 10 11 11 11 12 12 11 11 11 10 10 10 10 10 10 9 8 7 5 5 5 5 4 4 3 3 3 3 2
9 12 9 7 7 8 10 10 9 7 5 6 6 6 6 8 10 10 11 11 12 11 11 11 11 11 11 11 11 10 10 10 9 7 5 3 3 3 3 3 3 4 4 4
12 6 8 9 11 12 12 12 10 7 6 6 6 8 8 8 8 9 10 11 11 12 12 12 12 12 11 11 12 10 11 10 10 9 7 5 4 4 4 4 4 4 4 4
10 6 9 12 13 12 11 9 8 9 9 7 8 7 9 9 9 10 11 11 12 12 12 12 12 12 12 11 11 11 11 11 10 10 9 9 6 5 4 3 3 4 4 4
9 9 12 13 12 11 6 6 9 10 10 8 8 9 5 8 9 10 11 12 12 12 12 13 12 12 11 11 10 10 11 11 10 10 10 9 8 6 4 4 4 4 4 5
6 6 9 9 8 8 7 8 7 9 10 11 9 9 6 6 6 7 8 10 11 11 12 12 11 10 10 10 10 10 11 11 11 11 11 10 9 7 6 5 5 5 4 4
9 10 8 8 11 11 12 12 9 11 10 9 6 9 4 1 2 4 4 6 9 10 11 11 11 11 10 11 10 10 11 11 12 12 11 11 10 9 8 7 6 6 4 4
12 12 12 11 12 11 15 16 11 9 10 8 8 9 3 1 1 1 3 4 5 8 10 10 11 11 10 11 11 11 11 11 11 11 11 10 10 8 7 8 6 5 4 4
10 9 10 9 9 10 14 14 11 9 7 8 8 6 5 3 2 1 2 3 4 6 8 9 9 10 10 10 11 11 11 10 10 10 10 10 10 9 7 6 7 6 5 4
5 7 10 9 9 7 9 11 9 10 9 10 9 9 5 5 4 3 2 2 3 4 6 7 7 8 8 8 9 9 9 9 9 9 9 8 9 9 8 7 7 5 4 4
7 7 10 12 11 12 11 12 10 10 9 10 8 6 2 4 2 2 2 2 3 3 5 6 6 7 7 7 7 8 8 8 8 8 8 8 8 8 8 7 7 6 5 5
7 7 8 10 6 6 11 11 12 11 9 9 8 4 5 3 2 2 2 3 4 4 4 5 6 6 6 6 5 6 7 7 8 8 7 7 7 7 7 7 6 6 6 5
7 6 9 11 10 9 10 10 11 10 8 9 10 5 7 4 3 3 3 4 4 4 5 5 5 5 5 5 5 5 6 6 6 7 8 7 7 7 7 6 6 6 6 6
6 7 9 9 7 10 12 12 12 12 10 10 10 6 7 5 3 3 3 4 4 5 5 5 5 5 5 4 4 4 4 5 5 5 6 6 6 6 6 6 6 6 6 5
7 8 7 4 3 8 10 12 13 14 12 11 8 8 6 5 4 3 3 4 5 6 6 5 5 5 4 4 4 4 4 4 4 5 4 4 5 6 5 5 5 5 5 5
6 6 8 7 7 8 9 10 11 12 11 11 9 6 4 4 4 4 4 4 5 6 6 5 5 5 4 4 4 4 4 3 4 4 4 3 4 4 5 5 4 5 4 4
8 7 9 9 9 9 12 10 10 9 8 10 9 6 7 6 5 4 4 4 5 6 5 5 4 4 4 4 4 4 4 3 3 3 3 3 4 4 4 5 5 5 4 4
7 8 7 7 9 13 4 4 7 8 7 6 5 6 7 6 6 5 4 5 6 6 5 5 4 5 5 5 4 3 3 3 3 3 3 3 4 4 4 4 5 4 4 4
7 8 8 8 11 9 6 5 7 8 7 6 5 6 7 8 8 7 5 6 6 5 5 4 4 5 4 4 4 3 3 3 3 2 2 2 3 4 4 4 4 4 4 4
8 8 9 9 11 10 6 7 4 7 9 7 6 7 8 9 8 7 7 6 6 6 5 5 5 5 5 4 4 3 3 3 2 2 2 2 3 3 4 4 3 4 4 4
12 10 12 11 10 5 4 6 7 10 5 7 7 7 7 6 2 9 8 6 6 6 5 5 5 5 4 4 4 3 3 3 2 2 3 3 2 2 3 3 4 4 5 5
10 10 11 10 11 6 6 6 5 2 4 5 6 6 5 6 9 9 8 7 6 6 6 5 5 5 4 3 4 4 4 3 2 3 3 3 3 2 3 4 4 4 4 5
6 3 4 4 1 5 3 2 3 2 3 4 4 5 7 9 9 9 8 7 6 6 5 5 5 5 4 3 3 4 4 3 4 4 4 5 5 5 5 5 5 4 3 3
4 1 3 3 4 4 3 2 2 2 3 3 5 6 8 9 9 8 7 6 5 5 4 4 5 5 4 4 4 4 4 4 5 5 5 6 6 6 6 5 5 4 3 2
3 5 5 5 5 5 4 3 3 4 5 6 6 7 8 9 8 7 6 6 5 4 4 4 4 4 4 4 4 4 4 4 5 6 6 6 6 7 7 7 6 5 6 4
4 4 5 4 5 4 5 4 4 5 6 7 8 8 8 8 8 7 6 5 5 4 4 4 4 4 4 4 4 4 4 4 5 5 5 5 5 5 6 7 8 13 10 12
Wind_Direction
193 211 206 199 214 231 206 207 193 166 158 207 213 203 176 178 196 196 191 192 194 199 194 193 196 199 197 197 197 199 201 192 195 198 201 197 199 205 205 203 192 208 219 215
194 212 203 195 202 212 207 207 192 157 163 220 220 223 193 189 203 203 198 198 200 196 194 194 198 201 203 201 201 201 202 198 199 198 207 209 213 213 213 208 191 209 212 218
212 171 171 189 194 203 208 212 199 180 173 204 229 217 199 193 207 208 208 207 207 202 199 196 199 203 204 204 204 205 206 204 205 199 200 199 200 217 206 200 201 209 212 219
210 160 184 197 200 207 204 209 208 192 203 202 223 237 190 189 198 206 211 209 210 208 205 202 200 203 205 204 202 204 203 205 204 202 208 210 215 220 216 212 201 201 213 221
186 181 193 202 199 211 198 181 203 208 222 228 212 252 189 177 206 210 210 211 209 206 205 205 203 202 204 202 199 198 199 201 201 205 208 214 222 224 218 210 206 221 212 221
166 182 207 206 190 195 156 162 181 214 227 229 219 240 220 184 217 225 210 207 207 204 204 204 203 199 200 200 199 196 194 199 200 203 207 213 220 223 224 220 216 216 211 214
182 187 189 193 178 179 193 190 193 203 216 221 194 233 236 140 222 247 236 210 203 200 200 199 198 196 196 197 197 196 193 198 200 202 207 210 215 218 220 225 219 226 222 214
189 184 183 193 204 190 205 214 221 218 215 200 190 227 205 156 254 248 237 217 202 198 196 196 195 194 195 195 195 195 194 199 199 202 206 209 211 216 220 220 232 222 230 229
201 179 165 189 207 213 201 220 234 240 237 233 199 199 196 192 202 185 174 174 185 188 189 190 190 190 191 191 192 195 193 196 198 202 204 207 210 217 220 214 220 226 221 220
215 185 168 172 188 212 234 209 212 231 226 228 213 211 207 189 201 175 149 139 146 157 168 176 181 184 185 187 189 193 193 194 196 200 204 203 207 210 213 216 215 220 218 216
212 201 170 181 202 190 195 206 218 224 239 241 222 194 160 197 194 173 130 114 120 143 154 160 164 168 171 175 178 184 188 188 191 199 202 208 205 203 202 207 210 207 209 205
210 222 187 186 182 229 212 209 209 218 216 243 257 154 107 139 136 124 94 88 89 109 127 138 146 153 156 160 167 175 181 185 190 190 192 196 199 197 198 201 204 203 203 205
187 211 188 181 183 196 208 209 215 226 222 229 238 183 122 132 130 110 90 88 94 97 104 115 125 136 142 148 157 167 174 178 185 186 189 190 192 192 197 198 194 200 203 205
219 221 234 214 189 184 196 202 210 219 225 224 232 208 166 165 156 120 96 92 98 104 106 109 115 120 123 133 148 158 161 166 174 180 184 185 191 190 190 190 187 194 198 200
221 215 223 242 198 195 201 203 208 221 233 237 224 217 204 188 162 129 117 109 107 105 103 104 107 107 112 118 122 128 135 147 162 169 178 182 188 181 178 179 181 183 189 192
220 219 204 210 210 205 206 205 211 219 228 233 226 214 173 149 140 135 126 115 109 105 102 99 98 102 107 111 115 115 117 138 156 162 164 163 162 159 162 167 170 174 179 181
195 206 213 207 198 209 213 209 211 213 222 227 224 201 165 165 161 146 131 119 108 102 93 88 88 90 98 101 107 120 126 138 144 147 151 157 156 152 156 162 160 167 169 168
205 211 223 212 202 222 194 198 217 213 216 229 217 178 175 160 136 123 122 119 109 100 95 87 85 87 90 97 104 110 120 129 136 144 149 152 153 149 149 154 156 160 154 150
215 214 223 221 216 215 180 187 205 207 209 204 195 168 151 141 141 132 110 105 103 94 88 87 88 92 90 90 91 101 113 117 120 127 135 137 146 147 148 149 153 151 145 141
194 221 229 222 225 223 185 159 184 216 207 179 181 170 164 177 194 140 119 108 99 90 83 83 87 91 85 79 85 96 98 95 91 92 105 119 139 154 155 147 147 141 136 127
189 202 221 222 225 211 126 146 187 216 186 158 180 177 180 188 96 112 121 110 100 94 89 84 82 80 80 88 97 100 87 73 63 74 88 97 110 132 135 125 123 126 125 118
200 199 208 219 224 194 128 174 203 39 79 151 169 172 162 120 113 121 120 115 110 103 96 91 88 80 74 83 101 100 86 77 72 68 79 85 88 93 110 114 116 120 123 121
223 238 213 224 197 80 130 110 50 53 132 141 156 157 145 137 133 128 122 117 108 100 95 91 92 87 78 72 85 99 89 82 87 85 81 81 85 84 84 95 104 108 116 124
171 253 204 178 148 133 122 96 84 103 119 125 138 145 145 138 133 127 121 114 105 97 95 93 90 84 73 65 71 88 96 99 97 88 81 86 86 83 78 73 77 81 83 95
169 192 194 189 155 152 152 125 111 106 112 117 119 123 131 130 129 126 121 112 103 95 86 83 81 78 76 71 75 89 93 97 100 97 93 92 90 90 82 71 56 62 56 47
214 221 222 192 166 180 143 128 126 125 120 120 121 118 119 123 125 124 116 111 106 95 86 85 89 89 86 84 80 82 90 99 105 103 100 98 100 99 101 100 85 62 65 64